星链-1941 (STARLINK-1941 )

导读 | 豆包AI

STARLINK-1941是美国太空探索技术公司SpaceX星链卫星互联网项目的成员,于2020年10月24日发射升空,属于星链低轨星座组网卫星,运行在近地轨道,主要为全球提供宽带互联网接入服务,推动了低轨卫星通信产业发展,也引发了天文观测等领域的相关争议。

基本信息
目录编号:
46793
目录名称:
STARLINK-1941
国际标识:
2020-074BG
轨道中心:
EARTH
卫星名称:
星链-1941
卫星全名:
星链-1941 (STARLINK-1941 )
卫星状态:
已陨落 最后检测时间 2025-03-19
发射日期:
2020-10-24 UTC
国别 :
美国 (US)
星等 :
--
轨道信息
数据来源 国际轨道数据
星历时间: 2025-03-20T06:28:00+0800
轨道信息已过期380天
半长轴: 6525.057km
偏心率: 0.0004773
轨道倾角: 53.019°
近地点辐角 172.678°
升交点赤经 63.687°
平近点角 287.084°
近地点: 143.807km
远地点: 150.037km
周期: 87.425分钟
每日圈数: 16.471242
详细信息
固有亮度:
5
最大亮度:
2.5
卫星平台:
Starlink V1.0
覆盖范围:
全球
运营商:
太空探索技术公司
运营商所在国:
美国
制造商(研发单位):
太空探索技术公司
制造商所在国:
美国
使用方式:
暂无
卫星简介
星链(Starlink)计划是由太空探索技术公司(SpaceX)提出的一个巨型低轨卫星互联网星座项目,计划在2019年至2024年间在太空搭建由约1.2万颗卫星组成的“星链”网络,其中1584颗将部署在地球上空550千米处的近地轨道,并从2020年开始工作。该卫星仍在工作。